ATLAS 5 CENTAUR DEB, 43980

Orbit data source: Space-Track

ATLAS 5 CENTAUR DEB, 43980 is space debris in HEO originally from a launch on Wed, 17 Sep 2014 UTC launched from the Air Force Eastern Test Range (AFETR). Debris objects in space refer to the collection of defunct objects orbiting the Earth. Examples of debris include non-operational satellites, rocket bodies, and fragments generated from explosions, collisions, or faulty payload assembly.

Loading next visibility...
Identifier
43980, 2014-055AK
Orbit
HEO
Country
Flag of USUS
Related business
Flag of USUnited Launch Alliance/Lockheed Martin (US)
Manufacturer
Unknown
Mission
Spacecraft
Bus & Motor
Unknown
Mass
Unknown
Launch date (UTC)
2014-09-17 (11 years ago)
Launch vehicle
Unknown
Launch site
Air Force Eastern Test Range (AFETR)
Object type
Payload
Rocket body
Debris
Shape & HBR
Unknown
Radar Cross Section
Medium (>0.1 m² and <1 m²)

Expand to show TLE details & history
Last TLE update: 1 day ago

TLE from 1 day ago
0 ATLAS 5 CENTAUR DEB
1 43980U 14055AK  25241.72990802 -.00000032  00000-0  00000-0 0  9996
2 43980  19.5021 175.3282 4848780 106.0165 310.8775  1.83780530 46826
Epoch: 2025-08-29T17:31Z
TLE epoch observation values (Epoch: 2025-08-29T17:31:04.052Z)
Latitude
0.00004°
Longitude
-65.68168°
Altitude
18,518.206 km
Speed
4.226 km/s
True Right ascension
11h 41m 02s
True Declination
0° 00' 00"
Sunlit
Object was in daylight at epoch
Visualization orbit readout
Latitude
Unknown
Longitude
Unknown
Altitude
Unknown
Speed
Unknown
Apparent Right ascension
Unknown
Apparent Declination
Unknown
Sunlit
N/A
Visualization observer readout
Local Sidereal Time
15:44:38
Azimuth
Unknown
Elevation
Unknown
Doppler factor
Unknown
Orbital elements
Apogee altitude
35,429.593 km
Perigee altitude
8,125.466 km
Semi-major axis
28,155.667 km
Eccentricity
0.48488
Inclination
19.5021°
RAAN
175.3282°
Arg. of periapsis
106.0165°
True anomaly
253.93521°
Mean anomaly
310.8775°
Eccentric anomaly
283.91084°
Mean motion
0.4594 °/min
Orbital period
783.62 mins
BSTAR
0
Loading maneuver chart data...
Computing Atmospheric mass density...
Loading historical data...
Loading historical data...
Loading historical data...
Loading historical data...
Loading historical data...
Loading historical data...
Loading historical data...

Documentation

Showing up to 5 results
|